Regional Weather Roundup
Issued by NWS

Home | Current Version | Previous Version | Graphics & Text | Print | Product List | Glossary Off
Versions: 1 2 3 4 5 6 7 8 9 10 11 12 13 14 15 16 17 18 19 20 21 22 23 24 25 26 27 28 29 30 31 32 33 34 35 36 37 38 39 40 41 42 43 44 45 46 47 48 49 50

900
ASUS43 KTOP 192159
RWRKS

WEATHER ROUNDUP FOR KANSAS
NATIONAL WEATHER SERVICE GOODLAND KS
400 PM CST SUN NOV 19 2017

NOTE:  "FAIR" INDICATES FEW OR NO CLOUDS BELOW 12,000 FEET WITH NO
SIGNIFICANT WEATHER AND/OR OBSTRUCTIONS TO VISIBILITY.

KSZ001>006-013>018-027>032-041>047-192300-
NORTHWEST KANSAS

CITY           SKY/WX    TMP DP  RH WIND       PRES   REMARKS
GOODLAND       CLOUDY    61  11  14 SW13      29.99F
HAYS           CLOUDY    60  21  22 SW15      30.03F
HILL CITY      CLOUDY    58  24  27 SW8       30.01F
RUSSELL        CLOUDY    58  20  22 S14       30.02F
$$

KSZ061>065-074>080-084>089-192300-
SOUTHWEST KANSAS

CITY           SKY/WX    TMP DP  RH WIND       PRES   REMARKS
DODGE CITY     CLOUDY    63  20  19 SW16G26   30.05F
GARDEN CITY    CLOUDY    60  21  22 SW9       30.04F
GREAT BEND     CLOUDY    60  21  22 S10G21    30.06F
LIBERAL        SUNNY     62  18  18 SW22G28   30.06F
$$

KSZ066>073-081>083-090>101-192300-
SOUTHEAST KANSAS

CITY           SKY/WX    TMP DP  RH WIND       PRES   REMARKS
CHANUTE        SUNNY     55  28  35 S14       30.17F
COFFEYVILLE    SUNNY     56  29  35 S12       30.19F
HUTCHINSON     CLOUDY    59  20  22 S16       30.09F
MEDICINE LODGE   N/A     62  18  18 S14G23    30.10F
NEWTON         SUNNY     55  21  26 S18       30.11F
PARSONS        SUNNY     55  28  35 S9        30.19F
WICHITA INTL   MOSUNNY   57  22  25 SW15      30.12F
WICHITA JABRA  SUNNY     56  20  24 SW14G22   30.12F
WICHITA MCCONL SUNNY     57  19  23 SW16      30.12F
WINFIELD       SUNNY     57  23  26 SW17      30.16F
$$

KSZ007>012-019>026-033>040-048>060-102>105-192300-
NORTHEAST KANSAS

CITY           SKY/WX    TMP DP  RH WIND       PRES   REMARKS
CONCORDIA      SUNNY     59  20  22 SW15G22   30.03F
EMPORIA        SUNNY     57  22  25 SW15      30.12F
LAWRENCE       CLEAR     55  28  35 S14       30.12F
MANHATTAN      SUNNY     59  23  25 SW13      30.07F
OLATHE IND     CLEAR     52  28  39 SW13      30.14F
OLATHE EXE     CLEAR     51  29  42 SW12G17   30.13F
SALINA         SUNNY     61  19  19 SW20      30.08F
TOPEKA BILLARD SUNNY     57  23  26 SW13      30.10F
TOPEKA FORBES  SUNNY     57  23  26 S15       30.10F
$$




USA.gov is the U.S. government's official web portal to all federal, state and local government web resources and services.